Flag for Germany Weather past 2 weeks in Neubrandenburg, Mecklenburg-Western Pomerania, Germany

Now
49 °F

Fog.


Feels Like: 49 °F
Forecast: 54 / 69 °F
Wind: 1 mph from South

Location: Greifswald

Current Time: Oct 2, 2014 at 5:42:09 AM

Latest Report: Oct 2, 2014 at 4:00 AM


Visibility: 2 mi

Pressure: 30.36 "Hg

Humidity: 99%

Dew point: 48 °F

Location of NeubrandenburgLocation

Historic Weather in Neubrandenburg — Graph

°F

Neubrandenburg temperature yesterday

Maximum temperature yesterday: 66 °F (at 4:00 PM)
Minimum temperature yesterday: 54 °F (at 10:00 PM)
Average temperature yesterday: 60 °F

Past Weeks' High & Low Weather Summary

 TemperatureHumidityPressure
High71 °F (Sep 18, 4:00 PM)100% (Sep 20, 8:00 AM)30.36 "Hg (Sep 20, 8:00 AM)
Low46 °F (Sep 23, 9:00 PM)50% (Sep 27, 2:00 PM)29.72 "Hg (Sep 22, 7:00 AM)
Average57 °F84%30.06 "Hg
* Reported Sep 17 4:00 AM — Oct 2 4:00 AM, Neubrandenburg, Weather by CustomWeather, © 2014

Note: Actual official high and low records may vary slightly from our data, if they occured in-between our weather recording intervals... More about our weather records

Advertising

Neubrandenburg weather history for previous 24 hours

 ConditionsComfort  
Time TempWeatherWind HumidityBarometerVisibility
4:00 AM
Oct 2
49 °FFog.1 mph99%30.36 "Hg2 mi
3:00 AM49 °FFog.No wind98%30.36 "Hg1 mi
2:00 AM50 °FFog.1 mph99%30.36 "Hg1 mi
1:00 AM51 °FFog.1 mph98%30.35 "Hg2 mi
12:00 AM52 °FFog.1 mph98%30.34 "Hg0 mi
10:00 PM
Oct 1
54 °FFog.1 mph99%30.34 "Hg1 mi
9:00 PM55 °FFog.1 mph98%30.33 "Hg1 mi
8:00 PM57 °FFog.1 mph97%30.33 "Hg1 mi
7:00 PM61 °FFog.2 mph90%30.32 "Hg2 mi
6:00 PM63 °FFog.2 mph84%30.31 "Hg3 mi
5:00 PMN/APassing clouds.8 mphN/AN/A2 mi
4:00 PM66 °FPartly sunny.3 mph72%30.30 "Hg6 mi
3:00 PM65 °FOvercast.2 mph72%30.30 "Hg6 mi
2:00 PM66 °FOvercast.2 mph73%30.31 "Hg6 mi
1:00 PM64 °FFog.2 mph79%30.31 "Hg3 mi
12:00 PM60 °FFog.1 mph93%30.31 "Hg2 mi
11:00 AM59 °FFog.2 mph98%30.31 "Hg0 mi
10:00 AM59 °FFog.2 mph98%30.30 "Hg1 mi
9:00 AM58 °FFog.1 mph98%30.29 "Hg0 mi
8:00 AM58 °FFog.1 mph99%30.28 "Hg0 mi
7:00 AM58 °FFog.1 mph99%30.27 "Hg0 mi
6:00 AM58 °FFog.1 mph98%30.28 "Hg1 mi
Weather by CustomWeather, © 2014

See weather overviewHow to use our weather pages